Погода в Эрзуруме

Турция     39°54′01″N   41°15′57″E
темп.,
°C
ветер,
м/с
пор.,
м/с
влажн.,
%
обл.,
%
осадки,
мм/ч
давл.,
гПа
погр.,
м
9 декабря, чт
чт900:00−1зсз2299100 1.9 101757
03:00−4с119163 2.5 101910
06:00−6св119198 0.1 102210
09:00−5ююз0094100 0.1 102413
12:00−2зсз1189100 0.0 1022158
15:00−1сз1189100 0.1 102298
18:00−4ссз119292 0.1 102510
21:00−5ссз009380 0.1 102810
10 декабря, пт
пт1000:00−3юз219397 0.0 102942
03:00−3зюз0195100 0.1 103042
06:00−3ссв119216 0.0 103019
09:00−6зсз11898 0.0 103418
12:00−3з11845 0.0 1031207
15:00−3з11885 0.0 103024
18:00−8с11867 0.0 103510
21:00−8ссз118215 0.0 103510
11 декабря, сб
сб1100:00−9с118117 0.0 103610
03:00−9ссз018019 0.0 103610
06:00−10с018232 0.0 103610
09:00−8зюз00835 0.0 103622
12:00−5зюз11765 0.0 1033108
15:00−3зюз00815 0.0 103010
18:00−7ссв1176100 0.0 103310
21:00−7с1172100 0.0 103510
12 декабря, вс
вс1200:00−8ссв11730 0.0 103510
03:00−8зсз117411 0.0 103610
06:00−9ссз017527 0.0 103710
09:00−7зсз017617 0.0 103611
12:00−3з116712 0.0 1032105
15:00−2сз01775 0.0 103010
18:00−6с11705 0.0 103310
21:00−7с11720 0.0 103410
13 декабря, пн
пн1300:00−7ссв1174100 0.0 103310
03:00−7всв0075100 0.0 103310
06:00−7всв1176100 0.0 103210
09:00−6всв1178100 0.0 103110
12:00−1в1166100 0.0 1027105
15:00−1св1175100 0.0 102410
18:00−6св227122 0.0 102811
21:00−6св117050 0.0 102810